Weather History for Iliamna, AK

Change the Weather History Date:

Saturday, January 12, 2013

  Actual Average Record
Temperature  
Mean Temperature 33 °F -  
Max Temperature 39 °F 21 °F 43 °F (1977)
Min Temperature 27 °F 10 °F -24 °F (2008)
Degree Days  
Heating Degree Days 32    
Moisture  
Dew Point 33 °F    
Average Humidity 83    
Maximum Humidity 100    
Minimum Humidity 64    
Precipitation  
Precipitation 0.24 in - - ()
Sea Level Pressure  
Sea Level Pressure 29.76 in    
Wind  
Wind Speed 24 mph (ESE)    
Max Wind Speed 30 mph    
Max Gust Speed 44 mph    
Visibility 9 miles    
Events Rain    
Averages and records for this station are not official NWS values.
T = Trace of Precipitation, MM = Missing Value Source: NWS Daily Summary

Daily Weather History Graph

Daily Weather History Graph

Search for Another Location

Airport:

Trip Planner

Search our weather history database for the weather conditions in past years. The results will help you decide how hot, cold, wet, or windy it might be!

Date:

Astronomy

Jan. 12, 2013 Rise Set
Actual Time 10:08 AM AKST 4:48 PM AKST
Civil Twilight 9:15 AM AKST 5:40 PM AKST
Nautical Twilight 8:21 AM AKST 6:34 PM AKST
Astronomical Twilight 7:32 AM AKST 7:24 PM AKST
Moon 10:02 AM AKST (1/12) 7:08 PM AKST (1/12)
Length of Visible Light 8h 25m
Length of Day
6h 39m
New Moon, 2% of the Moon is Illuminated
Jan 12
New Moon
Jan 18
First Quarter
Jan 26
Full
Feb 3
Last Quarter
Feb 9
New

Hourly Weather History & Observations

Time (AKST) Temp. Windchill Dew Point Humidity Pressure Visibility Wind Dir Wind Speed Gust Speed Precip Events Conditions
12:43 AM 37.4 °F 26.4 °F 30.2 °F 75% 29.92 in 10.0 mi East 23.0 mph 34.5 mph N/A   Overcast
12:53 AM 37.0 °F 26.7 °F 30.9 °F 79% 29.94 in 10.0 mi East 19.6 mph 29.9 mph N/A   Overcast
1:53 AM 37.9 °F 26.6 °F 32.0 °F 79% 29.92 in 10.0 mi East 25.3 mph 33.4 mph N/A   Overcast
3:53 AM 37.0 °F 25.6 °F 33.1 °F 86% 29.86 in 10.0 mi East 24.2 mph 38.0 mph 0.00 in Rain Light Rain
4:36 AM 37.4 °F 25.4 °F 33.8 °F 87% 29.84 in 10.0 mi East 27.6 mph 36.8 mph 0.01 in Rain Light Rain
4:53 AM 37.0 °F 24.9 °F 34.0 °F 89% 29.85 in 9.0 mi East 27.6 mph 35.7 mph 0.02 in Rain Light Rain
5:53 AM 37.0 °F 25.6 °F 37.0 °F 100% 29.83 in 9.0 mi East 24.2 mph 32.2 mph 0.01 in Rain Light Rain
6:53 AM 36.0 °F 23.9 °F 35.6 °F 99% 29.80 in 5.0 mi East 25.3 mph 36.8 mph 0.08 in Rain Rain
7:53 AM 36.0 °F 23.9 °F 34.5 °F 94% 29.81 in 10.0 mi East 25.3 mph 34.5 mph 0.06 in Rain Light Rain
8:53 AM 37.9 °F 27.3 °F 37.0 °F 97% 29.79 in 10.0 mi East 21.9 mph 36.8 mph 0.01 in Rain Light Rain
9:53 AM 37.9 °F 27.3 °F 37.0 °F 97% 29.79 in 10.0 mi East 21.9 mph 32.2 mph 0.03 in Rain Light Rain
10:53 AM 39.0 °F 28.8 °F 37.0 °F 93% 29.78 in 9.0 mi East 21.9 mph 34.5 mph 0.01 in Rain Rain
11:53 AM 37.9 °F 26.6 °F 30.0 °F 73% 29.78 in 10.0 mi ESE 25.3 mph 43.7 mph 0.05 in Rain Light Rain
12:53 PM 37.9 °F 27.9 °F 33.1 °F 83% 29.75 in 9.0 mi East 19.6 mph 26.5 mph 0.03 in Rain Light Rain
1:53 PM 37.9 °F 27.6 °F 32.0 °F 79% 29.75 in 9.0 mi East 20.7 mph 29.9 mph 0.06 in Rain Light Rain
2:53 PM 37.9 °F 26.3 °F 32.0 °F 79% 29.70 in 8.0 mi East 26.5 mph 33.4 mph 0.05 in Rain Rain
3:22 PM 37.4 °F 26.1 °F 32.0 °F 81% 29.70 in 10.0 mi East 24.2 mph 38.0 mph 0.03 in Rain Light Rain
4:16 PM 37.4 °F 25.9 °F 32.0 °F 81% 29.69 in 10.0 mi East 25.3 mph 36.8 mph 0.01 in   Overcast
4:39 PM 37.4 °F 25.2 °F 32.0 °F 81% 29.67 in 9.0 mi ESE 28.8 mph 38.0 mph 0.05 in Rain Light Rain
4:53 PM 37.9 °F 25.7 °F 32.0 °F 79% 29.68 in 9.0 mi ESE 29.9 mph 39.1 mph 0.07 in Rain Light Rain
5:53 PM 39.0 °F 28.8 °F 32.0 °F 76% 29.68 in 10.0 mi East 21.9 mph 34.5 mph N/A Rain Light Rain
6:53 PM 39.0 °F 28.5 °F 32.0 °F 76% 29.68 in 10.0 mi ESE 23.0 mph 38.0 mph N/A Rain Light Rain
7:53 PM 39.0 °F 28.5 °F 33.8 °F 82% 29.68 in 10.0 mi ESE 23.0 mph 33.4 mph 0.02 in Rain Light Rain
8:53 PM 39.9 °F 29.2 °F 32.0 °F 73% 29.66 in 10.0 mi ESE 25.3 mph 39.1 mph 0.00 in Rain Light Rain
9:48 PM 39.2 °F 28.0 °F 32.0 °F 75% 29.65 in 10.0 mi ESE 26.5 mph 43.7 mph 0.00 in Rain Light Rain
9:53 PM 39.9 °F 29.5 °F 32.0 °F 73% 29.67 in 10.0 mi ESE 24.2 mph 41.4 mph 0.00 in Rain Light Rain
10:32 PM 39.2 °F 29.0 °F 35.6 °F 87% 29.67 in 10.0 mi ESE 21.9 mph 31.1 mph 0.01 in Rain Light Rain
10:53 PM 39.9 °F 30.0 °F 36.0 °F 86% 29.70 in 10.0 mi SE 21.9 mph 29.9 mph 0.01 in Rain Light Rain
11:53 PM 39.9 °F 30.0 °F 37.0 °F 89% 29.73 in 7.0 mi ESE 21.9 mph 33.4 mph 0.01 in Rain Light Rain